This is the latest recevied weather packets stored in our database for station/object KN6CRX. If no packets are shown the sender has not sent any weather packets the latest 10 day(s).
| Time | Temp. | Humidity | Pressure | Rain* | Wind** | Luminosity | Snow |
|---|---|---|---|---|---|---|---|
| 1787755996 | 17.22° C | 53% | 1025.4 hPa | 0 mm | - | 61 W/m² | - |
| 1787755695 | 17.22° C | 52% | 1025.6 hPa | 0 mm | - | 57 W/m² | - |
| 1787755391 | 16.67° C | 54% | 1025.5 hPa | 0 mm | - | 54 W/m² | - |
| 1787755090 | 16.67° C | 56% | 1025.4 hPa | 0 mm | - | 54 W/m² | - |
| 1787754784 | 16.67° C | 57% | 1025.5 hPa | 0 mm | - | 53 W/m² | - |
| 1787754482 | 16.11° C | 57% | 1025.8 hPa | 0 mm | - | 52 W/m² | - |
| 1787754177 | 15.56° C | 59% | 1025.8 hPa | 0 mm | - | 51 W/m² | - |
| 1787753871 | 15.56° C | 59% | 1025.5 hPa | 0 mm | - | 48 W/m² | - |
| 1787753571 | 15.56° C | 61% | 1025.4 hPa | 0 mm | - | 45 W/m² | - |
| 1787753269 | 15° C | 61% | 1025.3 hPa | 0 mm | - | 46 W/m² | - |
| 1787752964 | 15° C | 62% | 1025.3 hPa | 0 mm | - | 40 W/m² | - |
| 1787752663 | 14.44° C | 63% | 1025.3 hPa | 0 mm | - | 37 W/m² | - |
| 1787752359 | 13.89° C | 65% | 1025.3 hPa | 0 mm | - | 36 W/m² | - |
| 1787752058 | 13.89° C | 67% | 1025.3 hPa | 0 mm | - | 34 W/m² | - |
| 1787751753 | 13.89° C | 69% | 1025.4 hPa | 0 mm | - | 33 W/m² | - |
| 1787751448 | 13.89° C | 69% | 1025.3 hPa | 0 mm | - | 32 W/m² | - |
| 1787751143 | 13.33° C | 68% | 1025.2 hPa | 0 mm | - | 30 W/m² | - |
| 1787750839 | 13.33° C | 70% | 1025.2 hPa | 0 mm | - | 26 W/m² | - |
| 1787750534 | 13.33° C | 70% | 1025.1 hPa | 0 mm | - | 23 W/m² | - |
| 1787750229 | 13.33° C | 70% | 1025.2 hPa | 0 mm | - | 22 W/m² | - |
| 1787749924 | 12.78° C | 69% | 1024.9 hPa | 0 mm | - | 20 W/m² | - |
| 1787749620 | 12.78° C | 69% | 1024.9 hPa | 0 mm | - | 17 W/m² | - |
| 1787749316 | 12.78° C | 69% | 1024.9 hPa | 0 mm | - | 12 W/m² | - |
| 1787749016 | 12.78° C | 69% | 1024.7 hPa | 0 mm | - | 8 W/m² | - |
| 1787748711 | 13.33° C | 67% | 1024.8 hPa | 0 mm | - | 6 W/m² | - |
* Rain latest hour (hover to see other rain measurements)
** Current wind speed in m/s (hover to see current wind gust speed)